ZIYUAN 1-02C (ZY 1-02C)

Last updated on Mon Oct 20 2025 00:02:30 GMT+0000 (Coordinated Universal Time)

1 38038U 11079A 25292.34462542 .00000901 00000+0 31252-3 0 9995 2 38038 98.4401 359.3451 0005499 315.2107 134.2402 14.37921249724591
UTC large
Height (km)
Speed (km/s)
/
Latitude / Longitude
Inclination (degrees)
Orbital Period (minutes)
Azimuth
Elevation
Range (km)
Doppler Factor

Next 0 passes for location: London (51.5072 / 0.1276)

Sorry there are no passes over London.